APRIZESAT 9

Last updated on Fri Dec 29 2023 00:03:29 GMT+0000 (Coordinated Universal Time)

1 40018U 14033J 23362.37313334 .00001577 00000+0 25346-3 0 9999 2 40018 97.7762 150.3256 0068796 218.0026 141.6318 14.71394598510933
UTC large
Height (km)
Speed (km/s)
/
Latitude / Longitude
Inclination (degrees)
Orbital Period (minutes)
Azimuth
Elevation
Range (km)
Doppler Factor

Next 0 passes for location: London (51.5072 / 0.1276)

Sorry there are no passes over London.